Weather History for Cloquet, MN

Change the Weather History Date:

Sunday, June 30, 2013

  Actual Average Record
Temperature  
Mean Temperature 65 °F -  
Max Temperature 80 °F 72 °F 89 °F (2002)
Min Temperature 50 °F 51 °F 39 °F (2010)
Growing Degree Days 15 (Base 50)    
Moisture  
Dew Point 49 °F    
Average Humidity 62    
Maximum Humidity 94    
Minimum Humidity 26    
Precipitation  
Precipitation 0.00 in - - ()
Sea Level Pressure  
Sea Level Pressure 30.09 in    
Wind  
Wind Speed 5 mph (NNW)    
Max Wind Speed 13 mph    
Max Gust Speed 18 mph    
Visibility 10 miles    
Events      
Averages and records for this station are not official NWS values.
T = Trace of Precipitation, MM = Missing Value Source: NWS Daily Summary

Daily Weather History Graph

Daily Weather History Graph

Search for Another Location

Airport:

Trip Planner

Search our weather history database for the weather conditions in past years. The results will help you decide how hot, cold, wet, or windy it might be!

Date:

Astronomy

Jun. 30, 2013 Rise Set
Actual Time 5:19 AM CDT 9:07 PM CDT
Civil Twilight 4:40 AM CDT 9:46 PM CDT
Nautical Twilight 3:47 AM CDT 10:39 PM CDT
Astronomical Twilight 2:30 AM CDT 11:55 PM CDT
Moon 12:37 AM CDT (6/30) 2:06 PM CDT (6/30)
Length of Visible Light 17h 06m
Length of Day
15h 47m
Last Quarter, 45% of the Moon is Illuminated
Jun 30
Last Quarter
Jul 8
New
Jul 15
First Quarter
Jul 22
Full
Jul 29
Last Quarter

Hourly Weather History & Observations

Time (CDT) Temp. Dew Point Humidity Pressure Visibility Wind Dir Wind Speed Gust Speed Precip Events Conditions
12:16 AM 53.6 °F 51.8 °F 94% 30.02 in 10.0 mi Calm Calm - N/A   Clear
12:36 AM 53.6 °F 50.0 °F 88% 30.03 in 10.0 mi NW 3.5 mph - N/A   Clear
12:56 AM 53.6 °F 50.0 °F 88% 30.03 in 10.0 mi NW 4.6 mph - N/A   Clear
1:15 AM 51.8 °F 50.0 °F 94% 30.04 in 10.0 mi NW 4.6 mph - N/A   Clear
1:36 AM 51.8 °F 50.0 °F 94% 30.04 in 10.0 mi NW 3.5 mph - N/A   Clear
1:56 AM 51.8 °F 50.0 °F 94% 30.04 in 10.0 mi NW 4.6 mph - N/A   Clear
2:16 AM 50.0 °F 46.4 °F 87% 30.04 in 10.0 mi NW 4.6 mph - N/A   Clear
2:36 AM 50.0 °F 48.2 °F 94% 30.04 in 10.0 mi NW 3.5 mph - N/A   Clear
2:55 AM 50.0 °F 48.2 °F 94% 30.05 in 10.0 mi NW 5.8 mph - N/A   Clear
3:16 AM 50.0 °F 48.2 °F 94% 30.05 in 10.0 mi NW 5.8 mph - N/A   Clear
3:36 AM 51.8 °F 48.2 °F 88% 30.05 in 10.0 mi NW 5.8 mph - N/A   Clear
3:56 AM 50.0 °F 48.2 °F 94% 30.05 in 10.0 mi NW 4.6 mph - N/A   Clear
4:16 AM 50.0 °F 48.2 °F 94% 30.06 in 10.0 mi NW 4.6 mph - N/A   Clear
4:36 AM 50.0 °F 46.4 °F 87% 30.06 in 10.0 mi WNW 4.6 mph - N/A   Clear
4:56 AM 50.0 °F 46.4 °F 87% 30.07 in 10.0 mi NW 5.8 mph - N/A   Clear
5:16 AM 50.0 °F 48.2 °F 94% 30.07 in 10.0 mi NW 4.6 mph - N/A   Clear
5:36 AM 50.0 °F 46.4 °F 87% 30.08 in 10.0 mi NW 4.6 mph - N/A   Clear
5:55 AM 51.8 °F 48.2 °F 88% 30.08 in 10.0 mi NW 3.5 mph - N/A   Clear
6:16 AM 51.8 °F 48.2 °F 88% 30.09 in 10.0 mi NW 4.6 mph - N/A   Clear
6:36 AM 53.6 °F 50.0 °F 88% 30.08 in 10.0 mi NW 4.6 mph - N/A   Clear
6:55 AM 55.4 °F 51.8 °F 88% 30.09 in 10.0 mi NW 4.6 mph - N/A   Clear
7:16 AM 55.4 °F 51.8 °F 88% 30.10 in 10.0 mi NW 5.8 mph - N/A   Clear
7:35 AM 57.2 °F 51.8 °F 82% 30.10 in 10.0 mi NW 5.8 mph - N/A   Clear
7:56 AM 60.8 °F 53.6 °F 77% 30.10 in 10.0 mi NW 5.8 mph - N/A   Clear
8:16 AM 62.6 °F 53.6 °F 72% 30.10 in 10.0 mi NNW 6.9 mph - N/A   Clear
8:36 AM 64.4 °F 53.6 °F 68% 30.11 in 10.0 mi NNW 9.2 mph - N/A   Clear
8:56 AM 64.4 °F 51.8 °F 64% 30.11 in 10.0 mi NNW 9.2 mph - N/A   Clear
9:16 AM 66.2 °F 53.6 °F 64% 30.11 in 10.0 mi NNW 10.4 mph 18.4 mph N/A   Clear
9:36 AM 68.0 °F 53.6 °F 60% 30.11 in 10.0 mi NNW 9.2 mph - N/A   Clear
9:55 AM 69.8 °F 53.6 °F 56% 30.10 in 10.0 mi NNW 12.7 mph 16.1 mph N/A   Clear
10:16 AM 71.6 °F 53.6 °F 53% 30.11 in 10.0 mi North 8.1 mph - N/A   Clear
10:36 AM 73.4 °F 53.6 °F 50% 30.11 in 10.0 mi North 9.2 mph 16.1 mph N/A   Clear
10:56 AM 73.4 °F 53.6 °F 50% 30.11 in 10.0 mi North 8.1 mph 16.1 mph N/A   Clear
11:16 AM 73.4 °F 53.6 °F 50% 30.11 in 10.0 mi North 8.1 mph - N/A   Clear
11:35 AM 75.2 °F 53.6 °F 47% 30.11 in 10.0 mi NNE 5.8 mph - N/A   Clear
11:56 AM 75.2 °F 51.8 °F 44% 30.11 in 10.0 mi North 8.1 mph 17.3 mph N/A   Clear
12:16 PM 77.0 °F 48.2 °F 36% 30.11 in 10.0 mi NNE 8.1 mph - N/A   Clear
12:35 PM 78.8 °F 48.2 °F 34% 30.10 in 10.0 mi North 5.8 mph - N/A   Scattered Clouds
12:56 PM 78.8 °F 42.8 °F 28% 30.10 in 10.0 mi ENE 4.6 mph - N/A   Scattered Clouds
1:16 PM 77.0 °F 42.8 °F 29% 30.11 in 10.0 mi North 6.9 mph - N/A   Scattered Clouds
1:35 PM 77.0 °F 42.8 °F 29% 30.10 in 10.0 mi ENE 5.8 mph - N/A   Scattered Clouds
1:56 PM 78.8 °F 44.6 °F 30% 30.11 in 10.0 mi North 9.2 mph - N/A   Scattered Clouds
2:16 PM 78.8 °F 42.8 °F 28% 30.10 in 10.0 mi NW 6.9 mph - N/A   Scattered Clouds
2:36 PM 80.6 °F 44.6 °F 28% 30.10 in 10.0 mi NNW 5.8 mph - N/A   Scattered Clouds
2:55 PM 78.8 °F 46.4 °F 32% 30.10 in 10.0 mi NE 4.6 mph 9.2 mph N/A   Scattered Clouds
3:16 PM 80.6 °F 42.8 °F 26% 30.09 in 5.0 mi North 6.9 mph - N/A   Haze
3:36 PM 78.8 °F 42.8 °F 28% 30.09 in 10.0 mi NNE 6.9 mph - N/A   Clear
3:55 PM 80.6 °F 46.4 °F 30% 30.10 in 10.0 mi North 4.6 mph - N/A   Clear
4:16 PM 80.6 °F 42.8 °F 26% 30.09 in 10.0 mi North 4.6 mph - N/A   Scattered Clouds
4:36 PM 78.8 °F 44.6 °F 30% 30.10 in 10.0 mi North 6.9 mph - N/A   Mostly Cloudy
4:55 PM 80.6 °F 44.6 °F 28% 30.10 in 10.0 mi WNW 3.5 mph - N/A   Scattered Clouds
5:16 PM 80.6 °F 42.8 °F 26% 30.10 in 10.0 mi NW 4.6 mph - N/A   Scattered Clouds
5:36 PM 78.8 °F 44.6 °F 30% 30.10 in 10.0 mi NNE 5.8 mph - N/A   Mostly Cloudy
5:55 PM 80.6 °F 44.6 °F 28% 30.10 in 10.0 mi NE 4.6 mph - N/A   Scattered Clouds
6:16 PM 80.6 °F 44.6 °F 28% 30.10 in 10.0 mi North 3.5 mph - N/A   Mostly Cloudy
6:36 PM 78.8 °F 44.6 °F 30% 30.10 in 10.0 mi NE 8.1 mph - N/A   Overcast
6:55 PM 78.8 °F 44.6 °F 30% 30.11 in 10.0 mi NE 8.1 mph - N/A   Mostly Cloudy
7:16 PM 78.8 °F 46.4 °F 32% 30.11 in 10.0 mi East 6.9 mph - N/A   Clear
7:36 PM 77.0 °F 48.2 °F 36% 30.11 in 10.0 mi Calm Calm - N/A   Clear
7:56 PM 75.2 °F 50.0 °F 41% 30.11 in 10.0 mi Calm Calm - N/A   Clear
8:16 PM 73.4 °F 55.4 °F 53% 30.11 in 10.0 mi Calm Calm - N/A   Clear
8:36 PM 71.6 °F 53.6 °F 53% 30.11 in 10.0 mi Calm Calm - N/A   Clear
8:56 PM 68.0 °F 55.4 °F 64% 30.11 in 10.0 mi Calm Calm - N/A   Clear
9:16 PM 66.2 °F 55.4 °F 68% 30.12 in 10.0 mi Calm Calm - N/A   Clear
9:36 PM 64.4 °F 55.4 °F 73% 30.12 in 10.0 mi Calm Calm - N/A   Clear
9:56 PM 62.6 °F 57.2 °F 82% 30.13 in 10.0 mi WNW 3.5 mph - N/A   Clear
10:16 PM 62.6 °F 55.4 °F 77% 30.13 in 10.0 mi Calm Calm - N/A   Clear
10:36 PM 62.6 °F 55.4 °F 77% 30.14 in 10.0 mi NW 3.5 mph - N/A   Clear
10:56 PM 60.8 °F 55.4 °F 82% 30.14 in 10.0 mi NW 3.5 mph - N/A   Clear
11:15 PM 59.0 °F 55.4 °F 88% 30.14 in 10.0 mi Calm Calm - N/A   Clear
11:36 PM 60.8 °F 55.4 °F 82% 30.14 in 10.0 mi NW 3.5 mph - N/A   Clear
11:56 PM 59.0 °F 53.6 °F 82% 30.15 in 10.0 mi NW 3.5 mph - N/A   Clear